DW1174 Weather Reports


Display with metric or nautical units.
time (UTC)temp
F
wind
direction
speed
MPH
gust
MPH
rain 1hr
in
rain 24hr
in
rain mn
in
humidity
%
barometer
mb
20260506153910 48 335 1.0 5.0 0.00 1.43 0.26 91 1008.7
20260506153640 48 307 2.0 5.0 0.00 1.43 0.26 93 1008.7
20260506152840 48 321 1.0 5.0 0.00 1.43 0.26 95 1008.5
20260506152306 48 313 0.0 4.0 0.00 1.43 0.26 100 1008.5
20260506151959 48 292 0.0 4.0 0.00 1.43 0.26 97 1008.5
20260506151227 47 296 0.0 3.0 0.00 1.43 0.26 98 1008.5
20260506150917 47 284 1.0 4.0 0.00 1.43 0.26 98 1008.3
20260506150350 47 288 1.0 4.0 0.00 1.43 0.26 99 1008.4
20260506145620 47 263 0.0 5.0 0.00 1.43 0.26 99 1008.2
20260506145124 47 338 1.0 5.0 0.00 1.43 0.26 99 1008.1
20260506144547 47 305 0.0 4.0 0.00 1.43 0.26 99 1008.0
20260506144450 47 305 0.0 3.0 0.00 1.43 0.26 99 1007.9
20260506143440 47 294 0.0 3.0 0.00 1.43 0.26 99 1007.9
20260506142915 47 290 0.0 0.0 0.00 1.43 0.26 99 1007.8
20260506142355 46 290 0.0 0.0 0.00 1.43 0.26 99 1007.8
20260506142039 46 290 0.0 0.0 0.00 1.43 0.26 99 1007.7
20260506141242 46 290 0.0 0.0 0.00 1.43 0.26 99 1007.7
20260506140705 46 290 0.0 0.0 0.00 1.43 0.26 99 1007.8
20260506140154 46 290 0.0 0.0 0.00 1.43 0.26 99 1007.7
20260506135654 46 290 0.0 0.0 0.00 1.43 0.26 99 1007.8
20260506135124 46 290 0.0 3.0 0.00 1.43 0.26 99 1007.8
20260506134540 46 290 0.0 3.0 0.00 1.43 0.26 99 1007.6
20260506134003 46 290 0.0 0.0 0.00 1.43 0.26 99 1007.4
20260506133450 46 290 0.0 0.0 0.00 1.43 0.26 99 1007.3
20260506132948 46 290 0.0 0.0 0.00 1.43 0.26 99 1007.3
20260506132445 46 290 0.0 0.0 0.00 1.43 0.26 99 1007.2
20260506131930 46 290 0.0 0.0 0.00 1.43 0.26 99 1007.0
20260506131430 46 290 0.0 0.0 0.00 1.43 0.26 99 1006.9
20260506131134 46 290 0.0 0.0 0.00 1.43 0.26 99 1006.8
20260506130326 45 290 0.0 0.0 0.00 1.43 0.26 99 1006.8
20260506125736 45 290 0.0 0.0 0.00 1.43 0.26 99 1006.4
20260506125211 45 290 0.0 0.0 0.00 1.43 0.26 99 1006.6
20260506124652 45 290 0.0 0.0 0.00 1.43 0.26 99 1006.6
20260506124143 45 290 0.0 0.0 0.00 1.43 0.26 99 1006.6
20260506123616 45 290 0.0 0.0 0.00 1.43 0.26 99 1006.6
20260506123058 45 290 0.0 0.0 0.00 1.43 0.26 99 1006.7
20260506122508 45 290 0.0 0.0 0.00 1.43 0.26 99 1006.8
20260506121927 45 290 0.0 0.0 0.00 1.43 0.26 99 1006.4
20260506121353 45 290 0.0 0.0 0.00 1.43 0.26 99 1006.5
20260506120852 45 290 0.0 0.0 0.00 1.43 0.26 99 1006.5
20260506120310 45 290 0.0 0.0 0.00 1.43 0.26 99 1006.3
20260506115714 45 290 0.0 0.0 0.00 1.43 0.26 99 1006.2
20260506115124 45 290 0.0 0.0 0.00 1.43 0.26 99 1006.2
20260506114535 45 290 0.0 0.0 0.00 1.43 0.26 99 1006.2
20260506114235 45 290 0.0 0.0 0.01 1.43 0.26 99 1005.9
20260506113505 45 290 0.0 0.0 0.01 1.43 0.26 99 1005.8
20260506112941 45 290 0.0 0.0 0.01 1.43 0.26 99 1005.8
20260506112439 45 290 0.0 0.0 0.01 1.43 0.26 99 1005.8
20260506111850 45 290 0.0 0.0 0.01 1.43 0.26 99 1005.4
20260506111319 45 290 0.0 0.0 0.01 1.43 0.26 99 1005.3
20260506111111 45 290 0.0 0.0 0.01 1.43 0.26 99 1005.2
20260506105712 45 290 0.0 0.0 0.01 1.43 0.26 99 1005.5
20260506105202 45 290 0.0 1.0 0.01 1.43 0.26 99 1005.4
20260506104655 44 290 0.0 1.0 0.01 1.43 0.26 99 1005.5
20260506104112 44 290 0.0 0.0 0.01 1.42 0.25 99 1005.3
20260506103516 44 290 0.0 0.0 0.02 1.42 0.25 99 1005.3
20260506102952 44 290 0.0 0.0 0.02 1.42 0.25 99 1004.9
20260506102446 44 290 0.0 0.0 0.03 1.42 0.25 99 1004.8
20260506101902 44 290 0.0 0.0 0.03 1.42 0.25 99 1004.6
20260506101311 44 290 0.0 0.0 0.03 1.42 0.25 99 1004.8
20260506100738 44 290 0.0 0.0 0.03 1.42 0.25 98 1004.8
20260506100159 45 290 0.0 0.0 0.03 1.42 0.25 98 1005.1
20260506095608 45 290 0.0 0.0 0.03 1.42 0.25 99 1004.9
20260506095028 45 290 0.0 0.0 0.03 1.42 0.25 99 1005.4
20260506093910 45 290 0.0 10.0 0.03 1.41 0.24 99 1005.5
20260506093559 45 304 0.0 0.0 0.03 1.40 0.23 99 1005.5
20260506092838 45 304 0.0 0.0 0.04 1.40 0.23 99 1005.2
20260506092307 45 304 0.0 0.0 0.04 1.39 0.22 99 1005.1
20260506091715 45 304 0.0 0.0 0.05 1.39 0.22 99 1005.0
20260506091149 45 304 0.0 0.0 0.06 1.39 0.22 99 1005.0
20260506090653 45 304 0.0 0.0 0.06 1.39 0.22 99 1004.9
20260506090058 45 304 0.0 0.0 0.07 1.39 0.22 99 1004.7
20260506085516 45 304 0.0 0.0 0.07 1.39 0.22 99 1004.4
20260506084935 45 304 0.0 0.0 0.08 1.39 0.22 98 1004.6
20260506084623 45 304 0.0 0.0 0.07 1.38 0.21 98 1004.8
20260506083908 45 304 0.0 0.0 0.08 1.38 0.21 98 1004.9
20260506083600 45 304 0.0 0.0 0.07 1.37 0.20 98 1005.1
20260506082759 45 304 0.0 0.0 0.07 1.36 0.19 98 1005.4
20260506082229 45 304 0.0 0.0 0.06 1.35 0.18 98 1005.4
20260506081703 45 304 0.0 0.0 0.05 1.34 0.17 98 1005.3
20260506081119 45 304 0.0 0.0 0.05 1.33 0.16 98 1005.2
20260506080755 45 304 0.0 0.0 0.05 1.33 0.16 98 1005.1
20260506073148 45 304 0.0 0.0 0.02 1.29 0.12 98 1004.8
20260506072825 45 304 0.0 0.0 0.02 1.29 0.12 98 1004.8
20260506072038 45 304 0.0 0.0 0.02 1.29 0.12 98 1004.8
20260506071459 45 304 0.0 0.0 0.02 1.29 0.12 98 1004.8
20260506070917 45 304 0.0 0.0 0.02 1.28 0.11 98 1004.8
20260506070548 45 304 0.0 0.0 0.02 1.28 0.11 98 1004.8
20260506062042 45 304 0.0 0.0 0.05 1.27 0.10 98 1004.9
20260506061946 45 304 0.0 0.0 0.05 1.27 0.10 98 1004.8
20260506061209 46 304 0.0 0.0 0.05 1.26 0.09 98 1004.9
20260506060427 45 304 0.0 0.0 0.05 1.26 0.09 98 1004.8
20260506060119 45 304 0.0 0.0 0.05 1.26 0.09 98 1004.8
20260506051016 46 304 0.0 0.0 0.03 1.21 0.04 98 1005.4
20260506050441 46 304 0.0 0.0 0.04 1.21 0.04 98 1005.5
20260506045127 47 304 0.0 0.0 0.05 1.21 0.04 98 1005.6
20260506044328 47 304 0.0 0.0 0.05 1.20 0.04 98 1005.7
20260506043751 47 304 0.0 0.0 0.05 1.21 0.03 98 1005.7
20260506043244 47 304 0.0 0.0 0.06 1.21 0.03 98 1005.8
20260506042713 47 304 0.0 0.0 0.07 1.21 0.03 98 1005.9
20260506042206 47 304 0.0 0.0 0.07 1.20 0.03 98 1006.1
20260506041710 47 304 0.0 0.0 0.08 1.20 0.02 98 1006.0
20260506041355 47 304 0.0 0.0 0.10 1.19 0.01 98 1006.1
20260506040600 47 304 0.0 0.0 0.10 1.18 0.01 98 1006.0
20260506040042 47 304 0.0 0.0 0.12 1.18 0.00 98 1005.9
20260506035537 47 304 0.0 0.0 0.14 1.18 1.18 98 1006.1
20260506034959 48 304 0.0 0.0 0.14 1.17 1.17 98 1006.2
20260506034655 48 304 0.0 0.0 0.14 1.16 1.17 98 1006.3
20260506033859 48 304 0.0 0.0 0.16 1.16 1.16 98 1006.3
20260506033342 48 304 0.0 0.0 0.16 1.15 1.15 98 1006.1
20260506032826 48 304 0.0 0.0 0.17 1.14 1.15 98 1006.1
20260506032320 48 304 0.0 0.0 0.18 1.14 1.14 98 1006.1
20260506031807 48 304 0.0 0.0 0.17 1.12 1.12 98 1006.0
20260506031255 48 304 0.0 0.0 0.17 1.10 1.10 98 1006.3
20260506030753 48 304 0.0 0.0 0.16 1.08 1.08 98 1006.0
20260506030253 48 304 0.0 0.0 0.16 1.07 1.07 98 1005.9
20260506025723 48 304 0.0 0.0 0.15 1.05 1.05 98 1005.9
20260506025151 48 304 0.0 0.0 0.14 1.03 1.03 98 1005.7
20260506024626 49 304 0.0 0.0 0.13 1.02 1.02 98 1005.7
20260506024313 49 304 0.0 0.0 0.13 1.01 1.01 98 1005.8
20260506023524 49 304 0.0 0.0 0.11 0.99 1.00 98 1005.8
20260506022951 49 304 0.0 0.0 0.11 0.98 0.98 98 1005.7
20260506022642 49 304 0.0 0.0 0.09 0.96 0.96 98 1005.9
20260506021845 49 304 0.0 0.0 0.09 0.96 0.96 98 1006.0
20260506021309 49 304 0.0 0.0 0.07 0.93 0.94 98 1006.0
20260506020739 49 304 0.0 0.0 0.07 0.92 0.92 98 1005.9
20260506020206 49 304 0.0 0.0 0.07 0.91 0.91 98 1005.9
20260506015858 49 304 0.0 0.0 0.06 0.90 0.90 98 1005.9
20260506015102 49 304 0.0 0.0 0.06 0.89 0.89 98 1005.7
20260506014548 49 304 0.0 0.0 0.05 0.88 0.88 98 1005.6
20260506014013 49 304 0.0 0.0 0.05 0.88 0.88 98 1005.5
20260506013434 49 304 0.0 0.0 0.05 0.88 0.88 98 1005.4
20260506012920 49 304 0.0 0.0 0.04 0.87 0.87 98 1005.4
20260506012347 49 304 0.0 0.0 0.04 0.87 0.87 98 1005.5
20260506011827 49 304 0.0 0.0 0.04 0.87 0.87 98 1005.4
20260506011319 49 304 0.0 0.0 0.03 0.86 0.86 98 1005.4
20260506010805 49 304 0.0 0.0 0.02 0.85 0.85 98 1005.4
20260506010239 49 304 0.0 0.0 0.01 0.84 0.84 98 1005.3
20260506005717 49 304 0.0 0.0 0.02 0.84 0.84 98 1005.4
20260506005131 49 304 0.0 0.0 0.01 0.83 0.83 98 1005.0
20260506004807 49 304 0.0 0.0 0.02 0.83 0.83 98 1005.2
20260506004230 49 304 0.0 0.0 0.02 0.83 0.83 98 1005.1
20260506003435 49 304 0.0 0.0 0.04 0.83 0.83 98 1005.1
20260506002912 48 304 0.0 0.0 0.05 0.83 0.83 98 1005.0
20260506002353 49 304 0.0 0.0 0.06 0.83 0.83 98 1005.0
20260506001852 49 304 0.0 0.0 0.13 0.83 0.83 98 1004.9
20260506001303 49 304 0.0 0.0 0.15 0.83 0.83 98 1004.9
20260506000723 48 304 0.0 0.0 0.15 0.83 0.83 97 1004.9
20260506000126 48 304 0.0 0.0 0.17 0.83 0.83 97 1005.1
20260505235607 48 304 0.0 0.0 0.18 0.82 0.82 97 1005.3
20260505235255 48 304 0.0 0.0 0.20 0.82 0.82 97 1005.4
20260505234726 48 304 0.0 0.0 0.21 0.81 0.81 97 1005.3
20260505234222 48 304 0.0 0.0 0.21 0.80 0.80 97 1005.4
20260505233433 48 304 0.0 0.0 0.22 0.79 0.79 97 1005.3
20260505232927 48 304 0.0 0.0 0.22 0.78 0.78 97 1005.4
20260505232405 48 304 0.0 0.0 0.21 0.77 0.77 97 1005.6
20260505231903 48 304 0.0 0.0 0.17 0.70 0.70 97 1005.4
20260505231312 48 304 0.0 0.0 0.17 0.68 0.68 97 1005.4
20260505230717 48 304 0.0 0.0 0.19 0.68 0.68 97 1005.0
20260505230153 48 304 0.0 0.0 0.20 0.67 0.67 97 1005.3
20260505225651 48 304 0.0 0.0 0.17 0.64 0.65 97 1005.3
20260505225344 48 304 0.0 0.0 0.16 0.62 0.63 97 1005.6
20260505224813 48 304 0.0 0.0 0.16 0.61 0.61 97 1005.4
20260505224053 48 304 0.0 0.0 0.16 0.59 0.59 96 1005.2
20260505223523 48 304 0.0 0.0 0.16 0.57 0.57 97 1005.3
20260505223023 48 304 0.0 0.0 0.18 0.56 0.56 97 1005.3
20260505222452 49 304 0.0 0.0 0.19 0.57 0.56 96 1005.2
20260505221947 49 304 0.0 0.0 0.17 0.54 0.53 97 1005.4
20260505221423 49 304 0.0 0.0 0.17 0.52 0.51 96 1005.2
20260505220917 49 304 0.0 0.0 0.16 0.50 0.50 96 1005.3
20260505220352 49 304 0.0 0.0 0.15 0.48 0.48 96 1005.2
20260505215847 49 304 0.0 0.0 0.18 0.48 0.47 96 1004.9
20260505215305 49 304 0.0 0.0 0.22 0.48 0.47 96 1005.2
20260505214713 49 304 0.0 0.0 0.22 0.47 0.46 96 1005.2
20260505214153 49 304 0.0 3.0 0.24 0.45 0.44 96 1005.2
20260505213637 49 304 0.0 3.0 0.24 0.42 0.41 95 1005.1
20260505213113 49 331 0.0 4.0 0.23 0.39 0.39 95 1005.3
20260505212608 50 330 1.0 4.0 0.24 0.38 0.37 95 1005.3
20260505212044 50 342 1.0 4.0 0.25 0.37 0.36 95 1005.0
20260505211540 51 342 0.0 2.0 0.24 0.35 0.34 95 1005.3
20260505211029 51 342 0.0 3.0 0.24 0.34 0.33 95 1005.0
20260505210516 52 342 0.0 3.0 0.24 0.33 0.32 95 1005.0
20260505205953 53 286 0.0 3.0 0.24 0.31 0.30 94 1005.1
20260505205441 53 283 0.0 4.0 0.22 0.27 0.26 95 1005.2
20260505205151 54 320 0.0 4.0 0.20 0.25 0.25 95 1005.0
20260505204426 54 319 0.0 0.0 0.20 0.24 0.23 95 1004.9
20260505203929 55 317 0.0 0.0 0.16 0.19 0.18 95 1005.1
20260505203615 55 319 0.0 0.0 0.14 0.17 0.16 94 1004.8
20260505202805 55 319 0.0 0.0 0.12 0.15 0.14 94 1004.8
20260505202226 55 319 0.0 1.0 0.10 0.12 0.12 94 1004.9
20260505201659 55 319 0.0 1.0 0.09 0.11 0.11 93 1004.8
20260505201156 55 321 0.0 0.0 0.09 0.11 0.10 93 1005.0
20260505200655 56 321 0.0 0.0 0.07 0.09 0.09 92 1005.0
20260505200154 56 321 0.0 3.0 0.05 0.07 0.07 92 1005.1
20260505195626 56 321 0.0 3.0 0.04 0.06 0.05 91 1005.2
20260505195038 56 348 0.0 0.0 0.03 0.05 0.04 91 1005.3
20260505194457 56 348 0.0 0.0 0.02 0.04 0.03 90 1005.1
20260505193903 56 348 0.0 1.0 0.01 0.03 0.02 89 1005.2
20260505193608 57 348 0.0 5.0 0.01 0.03 0.02 88 1005.2
20260505192847 57 299 0.0 5.0 0.01 0.03 0.02 88 1005.2
20260505192324 58 278 0.0 3.0 0.00 0.02 0.01 87 1005.3
20260505191828 58 278 0.0 3.0 0.00 0.02 0.01 87 1005.3
20260505191246 58 244 0.0 0.0 0.00 0.02 0.01 86 1005.3
20260505190933 59 241 0.0 0.0 0.00 0.02 0.01 86 1005.2
20260505190349 59 271 0.0 4.0 0.00 0.02 0.01 86 1005.3
20260505185833 59 274 0.0 4.0 0.00 0.02 0.01 85 1005.3
20260505185108 59 274 0.0 3.0 0.00 0.02 0.01 84 1005.5
20260505184522 59 274 0.0 3.0 0.00 0.02 0.01 83 1005.4
20260505183950 59 275 1.0 10.0 0.00 0.02 0.01 83 1005.5
20260505183408 59 310 1.0 10.0 0.00 0.02 0.01 82 1005.4
20260505183116 60 267 1.0 5.0 0.00 0.02 0.01 82 1005.5
20260505182312 60 263 1.0 5.0 0.00 0.02 0.01 81 1005.4
20260505182017 60 137 1.0 6.0 0.00 0.02 0.01 81 1005.4
20260505181300 60 302 2.0 7.0 0.00 0.02 0.01 80 1005.3
20260505180746 61 213 2.0 15.0 0.00 0.02 0.01 80 1005.4
20260505180206 61 207 1.0 12.0 0.00 0.02 0.01 80 1005.5
20260505175652 61 268 1.0 12.0 0.00 0.02 0.01 79 1005.3
20260505175154 61 315 0.0 6.0 0.00 0.02 0.01 80 1005.3
20260505174609 61 203 1.0 4.0 0.00 0.02 0.01 80 1005.2
20260505174050 61 251 1.0 6.0 0.00 0.02 0.01 79 1005.3
20260505173553 61 267 1.0 6.0 0.00 0.02 0.01 79 1005.2
20260505173248 61 287 1.0 5.0 0.00 0.02 0.01 79 1005.2
20260505172511 62 291 2.0 9.0 0.00 0.02 0.01 78 1005.1
20260505171936 62 279 1.0 9.0 0.00 0.02 0.01 78 1005.1
20260505171424 62 263 0.0 4.0 0.00 0.02 0.01 78 1005.1
20260505171150 62 283 1.0 4.0 0.00 0.02 0.01 78 1005.1
20260505170342 62 264 1.0 7.0 0.00 0.02 0.01 77 1005.1
20260505165810 62 268 1.0 7.0 0.00 0.02 0.01 76 1005.1
20260505165525 62 280 1.0 6.0 0.00 0.02 0.01 76 1005.1
20260505164809 62 277 2.0 14.0 0.00 0.02 0.01 75 1004.9
20260505164519 63 278 2.0 14.0 0.00 0.02 0.01 74 1005.0
20260505164026 63 269 1.0 9.0 0.00 0.02 0.01 73 1004.8
20260505163230 64 252 2.0 9.0 0.00 0.02 0.01 71 1004.8
20260505162912 65 274 2.0 12.0 0.00 0.02 0.01 70 1004.8
20260505162150 66 242 2.0 12.0 0.00 0.02 0.01 68 1004.8
20260505161920 66 236 2.0 11.0 0.00 0.02 0.01 69 1004.7
20260505161150 66 286 2.0 11.0 0.00 0.02 0.01 68 1004.8
20260505160652 66 237 2.0 10.0 0.00 0.02 0.01 67 1004.9
20260505160404 67 332 2.0 10.0 0.00 0.02 0.01 64 1004.8